Home > Weather > Stephenville > Past weeks

Flag for Canada Past Weather in Stephenville, Newfoundland and Labrador, Canada — Yesterday and Last 2 Weeks

Now
55 °F

Passing clouds.


Feels Like: 54 °F
Forecast: 42 / 58 °F
Wind: 6 mph from East

Location: Stephenville

Current Time: May 26, 2016 at 2:19:26 AM

Latest Report: May 26, 2016 at 1:30 AM


Visibility: 15 mi

Pressure: 29.90 "Hg

Humidity: 94%

Dew Point: 54 °F

Location of StephenvilleLocation

Past Weather in Stephenville — Graph

°F

Stephenville Temperature Yesterday

Maximum temperature yesterday: 66 °F (at 12:30 PM)
Minimum temperature yesterday: 54 °F (at 3:30 PM)
Average temperature yesterday: 60 °F

High & Low Weather Summary for the Past Weeks

 TemperatureHumidityPressure
High68 °F (May 23, 12:30 PM)100% (May 12, 2:30 AM)30.17 "Hg (May 12, 2:30 AM)
Low32 °F (May 13, 5:30 AM)7% (May 15, 9:30 AM)29.48 "Hg (May 16, 5:30 AM)
Average47 °F79%29.88 "Hg
* Reported May 11 12:30 AM — May 26 12:30 AM, Stephenville, Weather by CustomWeather, © 2016

Note: Actual official high and low records may vary slightly from our data, if they occured in-between our weather recording intervals... More about our weather records

Advertising

Stephenville Weather History for the Previous 24 Hours

Scroll right to see more
 ConditionsComfort  
Time TempWeatherWind HumidityBarometerVisibility
12:30 AM
Thu, May 26
57 °FOvercast.3 mph100%29.91 "Hg15 mi
11:30 PM
Wed, May 25
61 °FOvercast.5 mph94%29.91 "Hg15 mi
10:30 PM59 °FThunderstorms. Partly cloudy.6 mph100%29.92 "Hg8 mi
9:30 PM57 °FThunderstorms. Partly sunny.6 mph94%29.93 "Hg15 mi
8:30 PM59 °FScattered clouds.3 mph94%29.94 "Hg15 mi
7:30 PM61 °FPartly sunny.2 mph94%29.95 "Hg15 mi
6:30 PM61 °FPartly sunny.3 mph94%29.94 "Hg15 mi
5:30 PM57 °FBroken clouds.No wind100%29.96 "Hg14 mi
4:30 PM55 °FFog.No wind94%29.97 "Hg15 mi
3:30 PM54 °FLight rain. Low clouds.3 mph94%29.98 "Hg8 mi
2:30 PM55 °FLow clouds.13 mph94%29.99 "Hg12 mi
1:30 PM57 °FLow clouds.14 mph94%29.99 "Hg10 mi
12:30 PM66 °FMore clouds than sun.2 mph94%29.98 "Hg15 mi
11:30 AM64 °FBroken clouds.2 mph100%29.99 "Hg12 mi
10:34 AM59 °FFog.3 mph100%30.01 "Hg1 mi
10:18 AM59 °FOvercast.7 mph100%30.01 "Hg12 mi
9:30 AM61 °FLight rain. Low clouds.No wind100%30.00 "Hg8 mi
8:30 AM63 °FLight rain. Fog.3 mph94%30.01 "Hg3 mi
7:30 AM63 °FSprinkles. Fog.6 mph94%30.00 "Hg5 mi
6:30 AM63 °FMostly cloudy.6 mph83%29.99 "Hg15 mi
5:30 AM63 °FOvercast.6 mph83%29.99 "Hg15 mi
4:30 AM61 °FPassing clouds.7 mph88%30.00 "Hg15 mi
3:30 AM59 °FPartly cloudy.7 mph88%30.01 "Hg15 mi
2:30 AM57 °FPassing clouds.3 mph94%30.01 "Hg15 mi
Weather by CustomWeather, © 2016

See weather overviewHow to use our weather pages